Location: Newark
(52.4787°S, 179.0532°W)
Time: 12:37:08
(UTC+00:00)

Vanguard 1 - Pass Details

Date: 24 November 2019
Orbit: 651 x 3832 km, 34.3° (Epoch: 14 December)

Event Time Altitude Azimuth Distance (km) Brightness Sun altitude
Rises 10:20:29 0° 303° (WNW) 5,020 13.6 -14.8°
Reaches altitude 10° 10:23:33 10° 311° (NW) 4,393 13.2 -15.0°
Maximum altitude 10:35:09 39° 14° (NNE) 3,749 12.5 -15.5°
Drops below altitude 10° 10:53:14 10° 71° (ENE) 6,752 14.0 -16.2°
Sets 10:59:27 0° 77° (ENE) 7,944 14.5 -16.4°
